TimeCDT,TemperatureF,Dew PointF,Humidity,Sea Level PressureIn,VisibilityMPH,Wind Direction,Wind SpeedMPH,Gust SpeedMPH,PrecipitationIn,Events,Conditions,WindDirDegrees,DateUTC
12:15 AM,51.8,44.6,76,30.09,10.0,ESE,6.9,-,N/A,,Clear,120,2013-10-09 05:15:00
12:35 AM,53.6,44.6,72,30.09,10.0,SE,6.9,-,N/A,,Clear,130,2013-10-09 05:35:00
12:55 AM,53.6,44.6,72,30.09,10.0,ESE,5.8,-,N/A,,Clear,120,2013-10-09 05:55:00
1:15 AM,51.8,42.8,71,30.09,10.0,ESE,4.6,-,N/A,,Clear,110,2013-10-09 06:15:00
1:35 AM,51.8,42.8,71,30.09,10.0,ESE,4.6,-,N/A,,Clear,110,2013-10-09 06:35:00
1:55 AM,51.8,42.8,71,30.09,10.0,East,4.6,-,N/A,,Clear,100,2013-10-09 06:55:00
2:15 AM,51.8,42.8,71,30.10,10.0,ESE,3.5,-,N/A,,Clear,110,2013-10-09 07:15:00
2:35 AM,50.0,42.8,76,30.10,10.0,East,4.6,-,N/A,,Clear,100,2013-10-09 07:35:00
2:55 AM,50.0,42.8,76,30.10,10.0,East,3.5,-,N/A,,Clear,100,2013-10-09 07:55:00
3:15 AM,48.2,42.8,82,30.09,10.0,East,4.6,-,N/A,,Clear,100,2013-10-09 08:15:00
3:35 AM,50.0,42.8,76,30.09,10.0,East,4.6,-,N/A,,Clear,100,2013-10-09 08:35:00
3:55 AM,48.2,42.8,82,30.09,10.0,ESE,4.6,-,N/A,,Clear,110,2013-10-09 08:55:00
4:15 AM,48.2,42.8,82,30.08,10.0,ESE,5.8,-,N/A,,Clear,110,2013-10-09 09:15:00
4:35 AM,48.2,41.0,76,30.09,10.0,Calm,Calm,-,N/A,,Clear,0,2013-10-09 09:35:00
4:55 AM,46.4,39.2,76,30.09,10.0,East,5.8,-,N/A,,Clear,100,2013-10-09 09:55:00
5:15 AM,48.2,39.2,71,30.10,10.0,East,3.5,-,N/A,,Clear,100,2013-10-09 10:15:00
5:35 AM,46.4,39.2,76,30.10,10.0,Calm,Calm,-,N/A,,Clear,0,2013-10-09 10:35:00
5:55 AM,46.4,39.2,76,30.10,10.0,East,3.5,-,N/A,,Clear,90,2013-10-09 10:55:00
6:15 AM,46.4,39.2,76,30.10,10.0,East,4.6,-,N/A,,Clear,100,2013-10-09 11:15:00
6:35 AM,46.4,39.2,76,30.10,10.0,East,4.6,-,N/A,,Clear,100,2013-10-09 11:35:00
6:55 AM,46.4,39.2,76,30.10,10.0,ESE,4.6,-,N/A,,Clear,110,2013-10-09 11:55:00
7:15 AM,46.4,39.2,76,30.10,10.0,East,4.6,-,N/A,,Clear,100,2013-10-09 12:15:00
7:35 AM,46.4,39.2,76,30.11,10.0,East,5.8,-,N/A,,Clear,100,2013-10-09 12:35:00
7:55 AM,46.4,39.2,76,30.11,10.0,East,4.6,-,N/A,,Clear,90,2013-10-09 12:55:00
8:15 AM,48.2,41.0,76,30.12,10.0,East,3.5,-,N/A,,Clear,100,2013-10-09 13:15:00
8:35 AM,51.8,42.8,71,30.13,10.0,ESE,3.5,-,N/A,,Clear,110,2013-10-09 13:35:00
8:55 AM,53.6,42.8,67,30.14,10.0,Calm,Calm,-,N/A,,Clear,0,2013-10-09 13:55:00
9:15 AM,55.4,44.6,67,30.14,10.0,ESE,4.6,-,N/A,,Clear,120,2013-10-09 14:15:00
9:35 AM,55.4,44.6,67,30.15,10.0,ESE,4.6,-,N/A,,Clear,110,2013-10-09 14:35:00
9:55 AM,57.2,44.6,63,30.15,10.0,SE,4.6,-,N/A,,Clear,130,2013-10-09 14:55:00
10:15 AM,60.8,46.4,59,30.15,10.0,SSE,6.9,-,N/A,,Clear,150,2013-10-09 15:15:00
10:35 AM,62.6,46.4,55,30.15,10.0,South,4.6,-,N/A,,Clear,180,2013-10-09 15:35:00
10:55 AM,64.4,48.2,56,30.15,10.0,South,6.9,-,N/A,,Clear,190,2013-10-09 15:55:00
11:15 AM,66.2,48.2,52,30.16,10.0,South,8.1,-,N/A,,Clear,190,2013-10-09 16:15:00
11:35 AM,68.0,48.2,49,30.15,10.0,SSW,8.1,-,N/A,,Clear,210,2013-10-09 16:35:00
11:55 AM,69.8,46.4,43,30.15,10.0,SSW,9.2,-,N/A,,Clear,210,2013-10-09 16:55:00
12:15 PM,69.8,46.4,43,30.14,10.0,SW,8.1,-,N/A,,Clear,220,2013-10-09 17:15:00
12:35 PM,71.6,48.2,43,30.13,10.0,SSW,9.2,-,N/A,,Clear,200,2013-10-09 17:35:00
12:55 PM,71.6,46.4,41,30.13,10.0,SSW,9.2,-,N/A,,Clear,210,2013-10-09 17:55:00
1:15 PM,71.6,46.4,41,30.11,10.0,WSW,6.9,-,N/A,,Clear,250,2013-10-09 18:15:00
1:35 PM,73.4,46.4,38,30.10,10.0,SSE,9.2,-,N/A,,Clear,160,2013-10-09 18:35:00
1:55 PM,73.4,44.6,36,30.09,10.0,South,4.6,-,N/A,,Clear,180,2013-10-09 18:55:00
2:15 PM,73.4,44.6,36,30.09,10.0,SSW,6.9,-,N/A,,Clear,210,2013-10-09 19:15:00
2:35 PM,75.2,42.8,31,30.08,10.0,South,5.8,-,N/A,,Clear,190,2013-10-09 19:35:00
2:55 PM,75.2,42.8,31,30.08,10.0,South,5.8,-,N/A,,Clear,190,2013-10-09 19:55:00
3:15 PM,75.2,44.6,34,30.07,10.0,SSW,6.9,-,N/A,,Clear,200,2013-10-09 20:15:00
3:35 PM,75.2,44.6,34,30.07,10.0,ESE,4.6,-,N/A,,Clear,120,2013-10-09 20:35:00
3:55 PM,75.2,44.6,34,30.07,10.0,South,5.8,-,N/A,,Clear,170,2013-10-09 20:55:00
4:15 PM,75.2,44.6,34,30.07,10.0,SSW,4.6,-,N/A,,Clear,210,2013-10-09 21:15:00
4:35 PM,75.2,46.4,36,30.06,10.0,SE,5.8,-,N/A,,Clear,130,2013-10-09 21:35:00
4:55 PM,75.2,46.4,36,30.06,10.0,Calm,Calm,-,N/A,,Clear,0,2013-10-09 21:55:00
5:15 PM,73.4,46.4,38,30.06,10.0,SE,5.8,-,N/A,,Clear,140,2013-10-09 22:15:00
5:35 PM,73.4,48.2,41,30.06,10.0,SE,5.8,-,N/A,,Clear,140,2013-10-09 22:35:00
5:55 PM,71.6,48.2,43,30.06,10.0,ESE,3.5,-,N/A,,Clear,120,2013-10-09 22:55:00
6:15 PM,71.6,48.2,43,30.06,10.0,SSE,3.5,-,N/A,,Clear,150,2013-10-09 23:15:00
6:35 PM,69.8,48.2,46,30.06,10.0,South,4.6,-,N/A,,Clear,190,2013-10-09 23:35:00
6:55 PM,66.2,46.4,49,30.07,10.0,South,4.6,-,N/A,,Clear,180,2013-10-09 23:55:00
7:15 PM,64.4,46.4,52,30.07,10.0,South,5.8,-,N/A,,Clear,170,2013-10-10 00:15:00
7:35 PM,64.4,46.4,52,30.07,10.0,SSE,5.8,-,N/A,,Clear,160,2013-10-10 00:35:00
7:55 PM,62.6,44.6,52,30.08,10.0,South,5.8,-,N/A,,Clear,170,2013-10-10 00:55:00
8:15 PM,60.8,44.6,55,30.08,10.0,SSE,5.8,-,N/A,,Clear,160,2013-10-10 01:15:00
8:35 PM,60.8,44.6,55,30.08,10.0,SSE,5.8,-,N/A,,Clear,150,2013-10-10 01:35:00
8:55 PM,62.6,44.6,52,30.08,10.0,SE,6.9,-,N/A,,Clear,140,2013-10-10 01:55:00
9:15 PM,60.8,44.6,55,30.07,10.0,SE,6.9,-,N/A,,Clear,130,2013-10-10 02:15:00
9:35 PM,60.8,44.6,55,30.07,10.0,ESE,5.8,-,N/A,,Clear,120,2013-10-10 02:35:00
9:55 PM,59.0,44.6,59,30.08,10.0,SE,5.8,-,N/A,,Clear,130,2013-10-10 02:55:00
10:15 PM,57.2,44.6,63,30.08,10.0,ESE,4.6,-,N/A,,Clear,120,2013-10-10 03:15:00
10:35 PM,57.2,44.6,63,30.08,10.0,SE,5.8,-,N/A,,Clear,130,2013-10-10 03:35:00
10:55 PM,57.2,44.6,63,30.08,10.0,ESE,6.9,-,N/A,,Clear,120,2013-10-10 03:55:00
11:15 PM,55.4,44.6,67,30.09,10.0,ESE,3.5,-,N/A,,Clear,120,2013-10-10 04:15:00
11:35 PM,53.6,42.8,67,30.09,10.0,Calm,Calm,-,N/A,,Clear,0,2013-10-10 04:35:00
11:55 PM,53.6,42.8,67,30.09,10.0,Calm,Calm,-,N/A,,Clear,0,2013-10-10 04:55:00